User: anonymous   Login
Location: Unspecified
(0.0000°N, 0.0000°E)
Time: 03:24:45
(UTC+00:00)
Language:

TBA - TO BE ASSIGNED - Orbit

View from above orbital plane
View from above orbital plane
View from above satellite
View from above satellite

Ground track
Ground track

The orbit is defined by the following mean orbital elements,

1 67890U          26145.54264926 +.00000000 +00000-0 +41455-3 0 00001
2 67890  97.2849  79.0276 0001935  91.9065 268.2400 15.33451028    04
Epoch (UTC): 25 May 2026 13:01:24
Eccentricity: 0.0001935
inclination: 97.2849°
perigee height: 464 km
apogee height: 467 km
right ascension of ascending node: 79.0276°
argument of perigee: 91.9065°
revolutions per day: 15.33451028
mean anomaly at epoch: 268.2400°

The dashed part of the orbit path shows where the satellite is in the earth's shadow,  

DLR